RYR8903 EETN-LIMC

Flight info

Callsign RYR8903
Flight time 3h 21m
Altitude 36000
Route LONSA DCT TODNA DCT ANFEV DCT PENOR DCT BODLA/N0449F380 DCT IBAGA DCT DKB N869 TEDGO DCT SONOM/N0456F370 DCT GERSA DCT SOSON DCT DEGAD Z424 BASGO/N0460F290 Z424 AKASU/N0392F190 Z424 RIXUV
Aircraft A320/M-SDE3FGHIRWY/LB1

Departure

Time 2026-05-05 17:46
Airport Lennart Meri Tallinn Airport (EETN)

Arrival

Time 2026-05-05 21:07
Airport Milan Malpensa International Airport (LIMC)
Time Latitude Longitude Altitude Speed Heading
2026-05-05 17:03 59.41586 24.80206 139 ft 0 kts
2026-05-05 17:28 59.41585 24.80206 139 ft 1 kts
2026-05-05 17:28 59.41561 24.80203 139 ft 4 kts
2026-05-05 17:29 59.41536 24.80187 139 ft 4 kts 45°
2026-05-05 17:29 59.41528 24.80162 139 ft 0 kts 90°
2026-05-05 17:34 59.41528 24.80163 139 ft 1 kts 90°
2026-05-05 17:35 59.41528 24.80194 139 ft 4 kts 90°
2026-05-05 17:35 59.41528 24.80234 139 ft 5 kts 90°
2026-05-05 17:35 59.41527 24.80317 139 ft 8 kts 90°
2026-05-05 17:35 59.41519 24.80474 139 ft 14 kts 102°
2026-05-05 17:36 59.41507 24.80706 139 ft 20 kts 89°
2026-05-05 17:36 59.41509 24.81015 139 ft 25 kts 89°
2026-05-05 17:36 59.41504 24.81386 139 ft 28 kts 92°
2026-05-05 17:36 59.41501 24.81786 139 ft 30 kts 89°
2026-05-05 17:37 59.41504 24.82214 139 ft 32 kts 89°
2026-05-05 17:37 59.41503 24.82667 140 ft 34 kts 91°
2026-05-05 17:37 59.41499 24.83102 140 ft 31 kts 90°
2026-05-05 17:37 59.41500 24.83535 140 ft 33 kts 90°
2026-05-05 17:38 59.41499 24.83995 140 ft 35 kts 90°
2026-05-05 17:38 59.41499 24.84480 140 ft 36 kts 90°
2026-05-05 17:38 59.41496 24.84818 140 ft 18 kts 91°
2026-05-05 17:38 59.41469 24.84988 141 ft 8 kts 145°
2026-05-05 17:39 59.41449 24.84999 141 ft 0 kts 171°
2026-05-05 17:41 59.41435 24.85001 141 ft 8 kts 177°
2026-05-05 17:41 59.41420 24.85001 141 ft 0 kts 180°
2026-05-05 17:43 59.41387 24.85000 141 ft 10 kts 181°
2026-05-05 17:44 59.41324 24.84901 141 ft 16 kts 265°
2026-05-05 17:44 59.41323 24.84858 141 ft 0 kts 270°
2026-05-05 17:45 59.41324 24.84849 141 ft 10 kts 271°
2026-05-05 17:45 59.41324 24.84147 139 ft 87 kts 269°
2026-05-05 17:45 59.41324 24.82571 137 ft 142 kts 270°
2026-05-05 17:45 59.41315 24.80395 353 ft 169 kts 269°
2026-05-05 17:46 59.41312 24.78010 998 ft 180 kts 271°
2026-05-05 17:46 59.41331 24.75943 1623 ft 185 kts 270°
2026-05-05 17:46 59.41013 24.73442 2264 ft 203 kts 244°
2026-05-05 17:46 59.40185 24.71012 2717 ft 230 kts 236°
2026-05-05 17:47 59.39333 24.68900 3255 ft 243 kts 234°
2026-05-05 17:47 59.38259 24.66284 4155 ft 248 kts 234°
2026-05-05 17:47 59.37188 24.63598 5118 ft 251 kts 236°
2026-05-05 17:47 59.36133 24.60854 6079 ft 253 kts 236°
2026-05-05 17:48 59.35092 24.58058 7003 ft 254 kts 237°
2026-05-05 17:48 59.34066 24.55247 8000 ft 253 kts 237°
2026-05-05 17:48 59.33056 24.52441 9021 ft 251 kts 237°
2026-05-05 17:48 59.32055 24.49639 9994 ft 251 kts 237°
2026-05-05 17:49 59.31023 24.46735 10392 ft 271 kts 237°
2026-05-05 17:49 59.29901 24.43567 10616 ft 295 kts 237°
2026-05-05 17:49 59.28694 24.40163 10947 ft 312 kts 237°
2026-05-05 17:49 59.27442 24.36651 11613 ft 317 kts 237°
2026-05-05 17:50 59.26171 24.33099 12374 ft 320 kts 237°
2026-05-05 17:50 59.24890 24.29527 13139 ft 322 kts 237°
2026-05-05 17:50 59.23595 24.25922 13874 ft 325 kts 237°
2026-05-05 17:50 59.22293 24.22297 14536 ft 327 kts 237°
2026-05-05 17:51 59.20983 24.18650 15199 ft 330 kts 237°
2026-05-05 17:51 59.19659 24.14970 15854 ft 332 kts 237°
2026-05-05 17:51 59.18325 24.11273 16504 ft 335 kts 237°
2026-05-05 17:51 59.16976 24.07546 17154 ft 338 kts 237°
2026-05-05 17:52 59.15618 24.03792 17811 ft 340 kts 237°
2026-05-05 17:52 59.14249 24.00006 18420 ft 343 kts 237°
2026-05-05 17:52 59.13371 23.97580 18777 ft 345 kts 237°
2026-05-05 17:52 59.11959 23.93701 19349 ft 347 kts 237°
2026-05-05 17:53 59.10560 23.89863 19899 ft 349 kts 237°
2026-05-05 17:53 59.09153 23.85999 20452 ft 351 kts 237°
2026-05-05 17:53 59.07669 23.82205 20967 ft 355 kts 232°
2026-05-05 17:53 59.06129 23.78786 21455 ft 357 kts 232°
2026-05-05 17:54 59.04987 23.76183 21809 ft 358 kts 233°
2026-05-05 17:54 59.03352 23.72510 22311 ft 360 kts 232°
2026-05-05 17:54 59.01689 23.68850 22791 ft 363 kts 232°
2026-05-05 17:54 59.00006 23.65172 23260 ft 365 kts 232°
2026-05-05 17:55 58.98315 23.61484 23655 ft 367 kts 232°
2026-05-05 17:55 58.96618 23.57774 24021 ft 369 kts 232°
2026-05-05 17:55 58.94913 23.54038 24382 ft 371 kts 232°
2026-05-05 17:55 58.93498 23.50938 24680 ft 373 kts 232°
2026-05-05 17:56 58.91778 23.47170 25029 ft 375 kts 232°
2026-05-05 17:56 58.90067 23.43425 25367 ft 377 kts 232°
2026-05-05 17:56 58.88327 23.39619 25696 ft 379 kts 232°
2026-05-05 17:56 58.86576 23.35797 26022 ft 381 kts 232°
2026-05-05 17:57 58.84815 23.31963 26340 ft 383 kts 232°
2026-05-05 17:57 58.83043 23.28117 26647 ft 384 kts 231°
2026-05-05 17:57 58.81259 23.24255 26949 ft 386 kts 231°
2026-05-05 17:57 58.79463 23.20377 27236 ft 388 kts 231°
2026-05-05 17:58 58.77660 23.16489 27516 ft 390 kts 231°
2026-05-05 17:58 58.75848 23.12583 27789 ft 392 kts 231°
2026-05-05 17:58 58.74027 23.08654 28046 ft 394 kts 231°
2026-05-05 17:58 58.72202 23.04716 28294 ft 395 kts 231°
2026-05-05 17:59 58.70367 23.00770 28553 ft 396 kts 231°
2026-05-05 17:59 58.68529 22.96835 28901 ft 395 kts 231°
2026-05-05 17:59 58.66693 22.92910 29239 ft 395 kts 231°
2026-05-05 17:59 58.64857 22.88992 29591 ft 394 kts 231°
2026-05-05 18:00 58.63025 22.85090 29936 ft 393 kts 231°
2026-05-05 18:00 58.61195 22.81199 30222 ft 393 kts 231°
2026-05-05 18:00 58.59364 22.77310 30498 ft 392 kts 231°
2026-05-05 18:00 58.57535 22.73426 30774 ft 392 kts 231°
2026-05-05 18:01 58.55705 22.69550 31046 ft 392 kts 231°
2026-05-05 18:01 58.53874 22.65679 31322 ft 392 kts 231°
2026-05-05 18:01 58.52044 22.61814 31591 ft 392 kts 231°
2026-05-05 18:01 58.50213 22.57947 31862 ft 392 kts 231°
2026-05-05 18:02 58.48375 22.54076 32157 ft 392 kts 231°
2026-05-05 18:02 58.46545 22.50225 32438 ft 391 kts 231°
2026-05-05 18:02 58.44712 22.46382 32708 ft 391 kts 231°
2026-05-05 18:02 58.42873 22.42540 32973 ft 392 kts 231°
2026-05-05 18:03 58.41036 22.38709 33252 ft 391 kts 231°
2026-05-05 18:03 58.39200 22.34882 33535 ft 391 kts 231°
2026-05-05 18:03 58.37364 22.31054 33814 ft 391 kts 231°
2026-05-05 18:03 58.35527 22.27226 34051 ft 391 kts 231°
2026-05-05 18:04 58.33689 22.23405 34277 ft 391 kts 231°
2026-05-05 18:04 58.31849 22.19593 34489 ft 392 kts 231°
2026-05-05 18:04 58.30001 22.15770 34690 ft 393 kts 231°
2026-05-05 18:04 58.28148 22.11941 34895 ft 394 kts 231°
2026-05-05 18:05 58.26610 22.08764 35050 ft 394 kts 231°
2026-05-05 18:05 58.24755 22.04940 35237 ft 395 kts 231°
2026-05-05 18:05 58.22886 22.01098 35422 ft 396 kts 230°
2026-05-05 18:05 58.21016 21.97265 35603 ft 397 kts 230°
2026-05-05 18:06 58.19138 21.93422 35790 ft 397 kts 230°
2026-05-05 18:06 58.15362 21.85709 35900 ft 401 kts 230°
2026-05-05 18:07 58.11559 21.77972 35903 ft 402 kts 230°
2026-05-05 18:07 58.07744 21.70234 35901 ft 402 kts 230°
2026-05-05 18:08 58.04259 21.63184 35902 ft 402 kts 230°
2026-05-05 18:08 58.00460 21.55521 35907 ft 402 kts 230°
2026-05-05 18:09 57.97020 21.48374 35902 ft 402 kts 231°
2026-05-05 18:09 57.93334 21.40457 35903 ft 402 kts 232°
2026-05-05 18:10 57.89640 21.32536 35903 ft 403 kts 231°
2026-05-05 18:10 57.85914 21.24670 35901 ft 403 kts 231°
2026-05-05 18:11 57.82169 21.16834 35907 ft 404 kts 231°
2026-05-05 18:11 57.78415 21.08995 35913 ft 404 kts 231°
2026-05-05 18:12 57.74662 21.01156 35912 ft 404 kts 231°
2026-05-05 18:12 57.71518 20.94588 35912 ft 404 kts 231°
2026-05-05 18:13 57.67776 20.86813 35912 ft 404 kts 231°
2026-05-05 18:13 57.64002 20.79010 35914 ft 405 kts 231°
2026-05-05 18:14 57.60224 20.71219 35911 ft 405 kts 231°
2026-05-05 18:14 57.56443 20.63440 35913 ft 405 kts 231°
2026-05-05 18:15 57.52645 20.55671 35911 ft 406 kts 231°
2026-05-05 18:15 57.48840 20.47917 35910 ft 406 kts 231°
2026-05-05 18:16 57.45028 20.40166 35910 ft 406 kts 230°
2026-05-05 18:16 57.41208 20.32425 35913 ft 407 kts 230°
2026-05-05 18:17 57.37380 20.24698 35911 ft 407 kts 230°
2026-05-05 18:17 57.33545 20.16980 35907 ft 407 kts 230°
2026-05-05 18:18 57.29705 20.09267 35914 ft 408 kts 230°
2026-05-05 18:18 57.25855 20.01567 35918 ft 408 kts 230°
2026-05-05 18:19 57.22000 19.93858 35914 ft 408 kts 230°
2026-05-05 18:19 57.18137 19.86185 35911 ft 409 kts 230°
2026-05-05 18:20 57.14257 19.78512 35915 ft 409 kts 230°
2026-05-05 18:20 57.10375 19.70842 35915 ft 409 kts 230°
2026-05-05 18:21 57.06484 19.63190 35915 ft 409 kts 230°
2026-05-05 18:21 57.02589 19.55562 35917 ft 410 kts 230°
2026-05-05 18:22 56.98692 19.47936 35907 ft 410 kts 230°
2026-05-05 18:22 56.94785 19.40328 35905 ft 410 kts 230°
2026-05-05 18:23 56.90875 19.32736 35904 ft 410 kts 230°
2026-05-05 18:23 56.86956 19.25148 35901 ft 410 kts 230°
2026-05-05 18:24 56.83029 19.17576 35904 ft 411 kts 229°
2026-05-05 18:24 56.79086 19.10000 35909 ft 411 kts 229°
2026-05-05 18:25 56.75132 19.02426 35912 ft 412 kts 229°
2026-05-05 18:25 56.71177 18.94861 35912 ft 412 kts 229°
2026-05-05 18:26 56.67216 18.87303 35919 ft 413 kts 229°
2026-05-05 18:26 56.63242 18.79767 35939 ft 413 kts 229°
2026-05-05 18:27 56.59257 18.72242 35926 ft 413 kts 229°
2026-05-05 18:27 56.55270 18.64729 35931 ft 414 kts 229°
2026-05-05 18:28 56.49276 18.53459 35932 ft 414 kts 229°
2026-05-05 18:28 56.45963 18.47258 35940 ft 414 kts 229°
2026-05-05 18:29 56.41955 18.39790 35932 ft 414 kts 229°
2026-05-05 18:29 56.37940 18.32331 35933 ft 414 kts 229°
2026-05-05 18:30 56.33926 18.24880 35936 ft 414 kts 229°
2026-05-05 18:30 56.29903 18.17450 35927 ft 414 kts 229°
2026-05-05 18:31 56.26636 18.11439 35925 ft 414 kts 229°
2026-05-05 18:31 56.22610 18.04036 35922 ft 414 kts 229°
2026-05-05 18:32 56.18577 17.96653 35926 ft 414 kts 229°
2026-05-05 18:32 56.14533 17.89275 35918 ft 414 kts 229°
2026-05-05 18:33 56.10487 17.81903 35919 ft 414 kts 228°
2026-05-05 18:33 56.06434 17.74554 35916 ft 414 kts 228°
2026-05-05 18:34 56.02402 17.67279 35916 ft 414 kts 228°
2026-05-05 18:34 55.98335 17.59958 35911 ft 414 kts 228°
2026-05-05 18:35 55.94272 17.52660 35910 ft 414 kts 228°
2026-05-05 18:35 55.90208 17.45378 35909 ft 414 kts 228°
2026-05-05 18:36 55.86133 17.38108 35909 ft 414 kts 228°
2026-05-05 18:36 55.82053 17.30857 35910 ft 414 kts 228°
2026-05-05 18:37 55.77568 17.24411 35910 ft 421 kts 213°
2026-05-05 18:37 55.72047 17.20694 35907 ft 428 kts 202°
2026-05-05 18:38 55.66364 17.17541 35904 ft 427 kts 204°
2026-05-05 18:38 55.61181 17.12798 35901 ft 416 kts 219°
2026-05-05 18:39 55.56451 17.06861 35902 ft 417 kts 219°
2026-05-05 18:39 55.51706 17.00981 35911 ft 417 kts 219°
2026-05-05 18:40 55.46963 16.95108 35919 ft 416 kts 219°
2026-05-05 18:40 55.42215 16.89256 35923 ft 416 kts 219°
2026-05-05 18:41 55.37473 16.83422 35923 ft 415 kts 219°
2026-05-05 18:41 55.32742 16.77598 35921 ft 415 kts 219°
2026-05-05 18:42 55.28008 16.71795 35927 ft 415 kts 219°
2026-05-05 18:42 55.23272 16.66019 35929 ft 414 kts 219°
2026-05-05 18:43 55.18541 16.60266 35931 ft 414 kts 219°
2026-05-05 18:43 55.13814 16.54528 35934 ft 414 kts 219°
2026-05-05 18:44 55.09083 16.48793 35932 ft 413 kts 219°
2026-05-05 18:44 55.04356 16.43086 35939 ft 413 kts 219°
2026-05-05 18:45 54.99637 16.37403 35933 ft 412 kts 219°
2026-05-05 18:45 54.94907 16.31731 35936 ft 412 kts 219°
2026-05-05 18:46 54.90184 16.26089 35934 ft 411 kts 219°
2026-05-05 18:46 54.85465 16.20466 35932 ft 411 kts 219°
2026-05-05 18:47 54.80752 16.14853 35930 ft 411 kts 219°
2026-05-05 18:47 54.76041 16.09251 35930 ft 410 kts 219°
2026-05-05 18:48 54.71331 16.03682 35930 ft 410 kts 219°
2026-05-05 18:48 54.66619 15.98130 35930 ft 410 kts 219°
2026-05-05 18:49 54.61907 15.92599 35925 ft 409 kts 219°
2026-05-05 18:49 54.57196 15.87085 35932 ft 409 kts 219°
2026-05-05 18:50 54.52497 15.81585 35930 ft 409 kts 219°
2026-05-05 18:50 54.47794 15.76088 35932 ft 408 kts 219°
2026-05-05 18:51 54.43882 15.71543 35932 ft 408 kts 219°
2026-05-05 18:51 54.39183 15.66095 35930 ft 407 kts 219°
2026-05-05 18:52 54.34485 15.60663 35931 ft 407 kts 219°
2026-05-05 18:52 54.30195 15.55715 35929 ft 407 kts 219°
2026-05-05 18:53 54.25499 15.50305 35926 ft 407 kts 219°
2026-05-05 18:53 54.20796 15.44918 35927 ft 407 kts 218°
2026-05-05 18:54 54.16093 15.39539 35923 ft 407 kts 218°
2026-05-05 18:54 54.11390 15.34180 35924 ft 407 kts 218°
2026-05-05 18:55 54.06679 15.28828 35924 ft 407 kts 218°
2026-05-05 18:55 54.01966 15.23477 35924 ft 407 kts 218°
2026-05-05 18:56 53.97248 15.18131 35919 ft 408 kts 218°
2026-05-05 18:56 53.92739 15.13033 35913 ft 408 kts 218°
2026-05-05 18:57 53.89020 15.08847 35918 ft 408 kts 218°
2026-05-05 18:57 53.84293 15.03500 35899 ft 409 kts 218°
2026-05-05 18:58 53.79535 14.98201 35896 ft 410 kts 218°
2026-05-05 18:58 53.74766 14.92904 35896 ft 410 kts 218°
2026-05-05 18:59 53.70001 14.87596 35895 ft 411 kts 218°
2026-05-05 18:59 53.65225 14.82278 35894 ft 411 kts 217°
2026-05-05 19:00 53.60435 14.76981 35886 ft 412 kts 217°
2026-05-05 19:00 53.56054 14.72153 35893 ft 412 kts 217°
2026-05-05 19:01 53.51252 14.66859 35896 ft 412 kts 217°
2026-05-05 19:01 53.46451 14.61583 35886 ft 413 kts 217°
2026-05-05 19:02 53.41639 14.56327 35892 ft 413 kts 217°
2026-05-05 19:02 53.37239 14.51522 35889 ft 413 kts 217°
2026-05-05 19:03 53.32431 14.46268 35885 ft 413 kts 217°
2026-05-05 19:03 53.27619 14.41037 35879 ft 413 kts 217°
2026-05-05 19:04 53.22902 14.35626 35881 ft 411 kts 219°
2026-05-05 19:04 53.18297 14.29980 35888 ft 410 kts 220°
2026-05-05 19:05 53.13690 14.24368 35884 ft 410 kts 219°
2026-05-05 19:05 53.09452 14.19319 35878 ft 410 kts 219°
2026-05-05 19:06 53.05222 14.14324 35875 ft 410 kts 219°
2026-05-05 19:06 53.00563 14.08824 35873 ft 410 kts 219°
2026-05-05 19:07 52.95916 14.03329 35868 ft 410 kts 219°
2026-05-05 19:07 52.92068 13.98797 35867 ft 410 kts 218°
2026-05-05 19:08 52.87415 13.93326 35859 ft 410 kts 218°
2026-05-05 19:08 52.82762 13.87878 35855 ft 410 kts 218°
2026-05-05 19:09 52.78097 13.82430 35853 ft 410 kts 218°
2026-05-05 19:09 52.73434 13.76993 35848 ft 410 kts 218°
2026-05-05 19:10 52.68764 13.71562 35846 ft 411 kts 218°
2026-05-05 19:10 52.64087 13.66153 35843 ft 411 kts 218°
2026-05-05 19:11 52.59414 13.60746 35840 ft 411 kts 218°
2026-05-05 19:11 52.55533 13.56265 35834 ft 411 kts 217°
2026-05-05 19:12 52.50852 13.50883 35833 ft 411 kts 217°
2026-05-05 19:12 52.46163 13.45519 35832 ft 411 kts 217°
2026-05-05 19:13 52.42281 13.41080 35830 ft 411 kts 217°
2026-05-05 19:13 52.37558 13.35678 35833 ft 411 kts 217°
2026-05-05 19:14 52.32860 13.30309 35834 ft 411 kts 217°
2026-05-05 19:14 52.28187 13.25015 35833 ft 412 kts 217°
2026-05-05 19:15 52.24285 13.20601 35831 ft 412 kts 217°
2026-05-05 19:15 52.19964 13.15712 35828 ft 412 kts 216°
2026-05-05 19:16 52.15671 13.10869 35828 ft 412 kts 216°
2026-05-05 19:16 52.11330 13.05994 35821 ft 413 kts 216°
2026-05-05 19:17 52.06606 13.00696 35824 ft 413 kts 216°
2026-05-05 19:17 52.01881 12.95392 35821 ft 413 kts 216°
2026-05-05 19:18 51.97151 12.90099 35830 ft 413 kts 216°
2026-05-05 19:18 51.92391 12.84810 35816 ft 417 kts 216°
2026-05-05 19:19 51.87999 12.79938 35816 ft 419 kts 216°
2026-05-05 19:19 51.83188 12.74615 35812 ft 419 kts 215°
2026-05-05 19:20 51.78375 12.69303 35808 ft 419 kts 215°
2026-05-05 19:20 51.73972 12.64445 35817 ft 420 kts 215°
2026-05-05 19:21 51.69147 12.59132 35822 ft 420 kts 215°
2026-05-05 19:21 51.64311 12.53840 35823 ft 421 kts 214°
2026-05-05 19:22 51.59467 12.48551 35827 ft 421 kts 214°
2026-05-05 19:22 51.54618 12.43256 35828 ft 421 kts 214°
2026-05-05 19:23 51.49765 12.37983 35827 ft 421 kts 214°
2026-05-05 19:23 51.44907 12.32725 35826 ft 421 kts 214°
2026-05-05 19:24 51.40051 12.27464 35827 ft 421 kts 214°
2026-05-05 19:24 51.35220 12.22244 35823 ft 422 kts 214°
2026-05-05 19:25 51.30320 12.16969 35824 ft 422 kts 214°
2026-05-05 19:25 51.25450 12.11744 35824 ft 422 kts 214°
2026-05-05 19:26 51.20571 12.06520 35819 ft 422 kts 214°
2026-05-05 19:26 51.15722 12.01333 35816 ft 422 kts 213°
2026-05-05 19:27 51.10830 11.96119 35807 ft 423 kts 213°
2026-05-05 19:27 51.05936 11.90912 35810 ft 423 kts 213°
2026-05-05 19:28 51.01034 11.85718 35804 ft 423 kts 213°
2026-05-05 19:28 50.96133 11.80540 35810 ft 423 kts 213°
2026-05-05 19:29 50.91253 11.75392 35811 ft 419 kts 213°
2026-05-05 19:29 50.88830 11.72843 35964 ft 418 kts 213°
2026-05-05 19:29 50.86407 11.70294 36214 ft 417 kts 213°
2026-05-05 19:30 50.83984 11.67749 36439 ft 417 kts 213°
2026-05-05 19:30 50.82388 11.66076 36581 ft 416 kts 213°
2026-05-05 19:30 50.79975 11.63550 36796 ft 416 kts 213°
2026-05-05 19:30 50.77557 11.61023 37002 ft 415 kts 213°
2026-05-05 19:31 50.75148 11.58510 37211 ft 414 kts 213°
2026-05-05 19:31 50.72743 11.56000 37407 ft 414 kts 213°
2026-05-05 19:31 50.70336 11.53491 37608 ft 414 kts 213°
2026-05-05 19:31 50.67941 11.50994 37778 ft 414 kts 213°
2026-05-05 19:32 50.63413 11.46285 37793 ft 414 kts 213°
2026-05-05 19:32 50.58723 11.41430 37795 ft 415 kts 212°
2026-05-05 19:33 50.53898 11.36437 37795 ft 416 kts 212°
2026-05-05 19:33 50.49059 11.31450 37791 ft 416 kts 212°
2026-05-05 19:34 50.44211 11.26459 37788 ft 417 kts 212°
2026-05-05 19:35 50.36949 11.19003 37792 ft 418 kts 212°
2026-05-05 19:35 50.32076 11.14013 37794 ft 418 kts 212°
2026-05-05 19:36 50.27192 11.09038 37795 ft 419 kts 212°
2026-05-05 19:36 50.22297 11.04062 37791 ft 420 kts 212°
2026-05-05 19:37 50.17393 10.99088 37792 ft 420 kts 212°
2026-05-05 19:37 50.12485 10.94116 37793 ft 421 kts 212°
2026-05-05 19:38 50.07596 10.89178 37800 ft 422 kts 212°
2026-05-05 19:38 50.02663 10.84207 37803 ft 422 kts 212°
2026-05-05 19:39 49.98573 10.80086 37803 ft 423 kts 212°
2026-05-05 19:39 49.93621 10.75130 37810 ft 424 kts 212°
2026-05-05 19:40 49.88665 10.70181 37810 ft 424 kts 212°
2026-05-05 19:40 49.83703 10.65220 37821 ft 424 kts 212°
2026-05-05 19:41 49.78727 10.60276 37825 ft 425 kts 212°
2026-05-05 19:41 49.73645 10.55647 37837 ft 424 kts 203°
2026-05-05 19:42 49.68090 10.52570 37840 ft 424 kts 199°
2026-05-05 19:42 49.62520 10.49563 37848 ft 424 kts 199°
2026-05-05 19:43 49.56955 10.46564 37857 ft 424 kts 199°
2026-05-05 19:43 49.51390 10.43577 37854 ft 424 kts 199°
2026-05-05 19:44 49.45820 10.40592 37855 ft 424 kts 199°
2026-05-05 19:44 49.40257 10.37613 37860 ft 424 kts 199°
2026-05-05 19:45 49.34687 10.34642 37861 ft 424 kts 199°
2026-05-05 19:45 49.29114 10.31680 37870 ft 424 kts 199°
2026-05-05 19:46 49.23535 10.28725 37884 ft 424 kts 199°
2026-05-05 19:46 49.17971 10.25737 37879 ft 424 kts 203°
2026-05-05 19:47 49.13014 10.20953 37869 ft 424 kts 222°
2026-05-05 19:47 49.09169 10.14116 37861 ft 425 kts 230°
2026-05-05 19:48 49.05454 10.07076 37853 ft 426 kts 229°
2026-05-05 19:48 49.01733 10.00056 37854 ft 426 kts 229°
2026-05-05 19:49 48.98006 9.93050 37850 ft 426 kts 229°
2026-05-05 19:49 48.94271 9.86058 37849 ft 426 kts 229°
2026-05-05 19:50 48.90541 9.79069 37847 ft 426 kts 229°
2026-05-05 19:50 48.86801 9.72085 37849 ft 426 kts 229°
2026-05-05 19:51 48.83061 9.65125 37846 ft 426 kts 229°
2026-05-05 19:51 48.79319 9.58163 37844 ft 426 kts 229°
2026-05-05 19:52 48.75563 9.51202 37842 ft 426 kts 229°
2026-05-05 19:52 48.71804 9.44258 37843 ft 426 kts 229°
2026-05-05 19:53 48.68044 9.37325 37838 ft 426 kts 229°
2026-05-05 19:53 48.64237 9.30456 37839 ft 425 kts 224°
2026-05-05 19:54 48.59502 9.25227 37834 ft 423 kts 205°
2026-05-05 19:54 48.53932 9.22392 37841 ft 423 kts 197°
2026-05-05 19:55 48.48280 9.19921 37856 ft 423 kts 197°
2026-05-05 19:55 48.42625 9.17441 37862 ft 424 kts 197°
2026-05-05 19:56 48.36962 9.14955 37867 ft 424 kts 197°
2026-05-05 19:56 48.31298 9.12474 37873 ft 424 kts 197°
2026-05-05 19:57 48.25630 9.09999 37880 ft 424 kts 197°
2026-05-05 19:57 48.19952 9.07532 37882 ft 425 kts 197°
2026-05-05 19:58 48.14272 9.05072 37886 ft 425 kts 197°
2026-05-05 19:58 48.08593 9.02608 37888 ft 425 kts 197°
2026-05-05 19:59 48.02943 9.00158 37890 ft 425 kts 197°
2026-05-05 19:59 47.97254 8.97691 37895 ft 426 kts 197°
2026-05-05 20:00 47.91563 8.95238 37896 ft 426 kts 197°
2026-05-05 20:00 47.85870 8.92798 37895 ft 426 kts 197°
2026-05-05 20:01 47.80182 8.90363 37900 ft 425 kts 197°
2026-05-05 20:01 47.74519 8.87811 37904 ft 425 kts 199°
2026-05-05 20:02 47.68924 8.85002 37911 ft 424 kts 200°
2026-05-05 20:02 47.63345 8.82169 37917 ft 424 kts 200°
2026-05-05 20:03 47.57755 8.79390 37921 ft 423 kts 200°
2026-05-05 20:03 47.52168 8.76652 37926 ft 423 kts 200°
2026-05-05 20:04 47.46583 8.73913 37927 ft 422 kts 200°
2026-05-05 20:04 47.40969 8.71166 37931 ft 422 kts 200°
2026-05-05 20:05 47.35430 8.68467 37937 ft 422 kts 200°
2026-05-05 20:05 47.29820 8.65743 37935 ft 421 kts 200°
2026-05-05 20:06 47.24288 8.63054 37929 ft 421 kts 200°
2026-05-05 20:06 47.18719 8.60350 37928 ft 422 kts 200°
2026-05-05 20:07 47.13147 8.57644 37923 ft 422 kts 200°
2026-05-05 20:07 47.07570 8.54948 37945 ft 422 kts 200°
2026-05-05 20:08 47.01767 8.53593 37946 ft 427 kts 181°
2026-05-05 20:08 46.95815 8.54382 37940 ft 430 kts 178°
2026-05-05 20:09 46.89854 8.55251 37941 ft 431 kts 178°
2026-05-05 20:09 46.83892 8.56096 37937 ft 430 kts 178°
2026-05-05 20:10 46.77916 8.56949 37949 ft 432 kts 178°
2026-05-05 20:10 46.74923 8.57379 37762 ft 431 kts 178°
2026-05-05 20:10 46.72953 8.57664 37574 ft 429 kts 178°
2026-05-05 20:10 46.70003 8.58092 37304 ft 420 kts 179°
2026-05-05 20:11 46.67108 8.58513 37046 ft 407 kts 179°
2026-05-05 20:11 46.64317 8.58915 36778 ft 398 kts 179°
2026-05-05 20:11 46.61631 8.59300 36533 ft 389 kts 179°
2026-05-05 20:11 46.58970 8.59678 36288 ft 380 kts 180°
2026-05-05 20:12 46.56359 8.60046 36047 ft 372 kts 180°
2026-05-05 20:12 46.53820 8.60406 35921 ft 362 kts 180°
2026-05-05 20:12 46.51339 8.60756 35599 ft 356 kts 181°
2026-05-05 20:12 46.48880 8.61093 35174 ft 353 kts 183°
2026-05-05 20:13 46.46463 8.61108 34847 ft 341 kts 191°
2026-05-05 20:13 46.44172 8.60646 34716 ft 326 kts 198°
2026-05-05 20:13 46.42020 8.59775 34481 ft 316 kts 205°
2026-05-05 20:13 46.40023 8.58529 34087 ft 310 kts 212°
2026-05-05 20:14 46.38182 8.56958 33579 ft 307 kts 215°
2026-05-05 20:14 46.36372 8.55324 33087 ft 307 kts 215°
2026-05-05 20:14 46.34547 8.53687 32506 ft 309 kts 214°
2026-05-05 20:14 46.32736 8.52070 32296 ft 301 kts 214°
2026-05-05 20:15 46.30949 8.50538 32005 ft 297 kts 211°
2026-05-05 20:15 46.29059 8.49317 31528 ft 300 kts 204°
2026-05-05 20:15 46.27050 8.48452 31045 ft 304 kts 197°
2026-05-05 20:15 46.24947 8.47965 30479 ft 310 kts 190°
2026-05-05 20:16 46.22765 8.47890 29877 ft 317 kts 183°
2026-05-05 20:16 46.20564 8.48184 29540 ft 314 kts 181°
2026-05-05 20:16 46.18436 8.48504 29390 ft 302 kts 181°
2026-05-05 20:16 46.16380 8.48807 29247 ft 292 kts 181°
2026-05-05 20:17 46.14388 8.49093 28985 ft 286 kts 181°
2026-05-05 20:17 46.12416 8.49388 28569 ft 285 kts 179°
2026-05-05 20:17 46.10454 8.49940 28024 ft 290 kts 172°
2026-05-05 20:17 46.08518 8.50859 27495 ft 295 kts 167°
2026-05-05 20:18 46.06595 8.51904 27014 ft 296 kts 167°
2026-05-05 20:18 46.04663 8.52949 26544 ft 297 kts 166°
2026-05-05 20:18 46.02726 8.53993 26113 ft 297 kts 166°
2026-05-05 20:18 46.00786 8.55036 25608 ft 299 kts 166°
2026-05-05 20:19 45.98843 8.56082 25210 ft 298 kts 166°
2026-05-05 20:19 45.96868 8.57140 24848 ft 307 kts 165°
2026-05-05 20:19 45.94875 8.58212 24484 ft 305 kts 165°
2026-05-05 20:19 45.92896 8.59277 24128 ft 302 kts 165°
2026-05-05 20:20 45.90934 8.60338 23776 ft 300 kts 163°
2026-05-05 20:20 45.89087 8.61774 23408 ft 305 kts 150°
2026-05-05 20:20 45.87420 8.63677 22989 ft 306 kts 147°
2026-05-05 20:20 45.85771 8.65600 22572 ft 305 kts 147°
2026-05-05 20:21 45.84128 8.67507 22166 ft 304 kts 147°
2026-05-05 20:21 45.82488 8.69405 21767 ft 302 kts 147°
2026-05-05 20:21 45.80855 8.71295 21365 ft 301 kts 147°
2026-05-05 20:21 45.79234 8.73170 20975 ft 296 kts 147°
2026-05-05 20:22 45.77661 8.74995 20586 ft 286 kts 147°
2026-05-05 20:22 45.76098 8.76660 20208 ft 273 kts 156°
2026-05-05 20:22 45.74449 8.77938 19841 ft 268 kts 158°
2026-05-05 20:22 45.72810 8.79191 19476 ft 267 kts 158°
2026-05-05 20:23 45.71177 8.80441 19111 ft 265 kts 158°
2026-05-05 20:23 45.69558 8.81684 18752 ft 264 kts 158°
2026-05-05 20:23 45.67956 8.82916 18397 ft 259 kts 158°
2026-05-05 20:23 45.66365 8.84139 18004 ft 259 kts 158°
2026-05-05 20:24 45.64779 8.85358 17601 ft 258 kts 158°
2026-05-05 20:24 45.63196 8.86575 17201 ft 258 kts 157°
2026-05-05 20:24 45.61623 8.87784 16809 ft 257 kts 157°
2026-05-05 20:24 45.60057 8.89022 16414 ft 258 kts 150°
2026-05-05 20:25 45.58821 8.90910 16029 ft 268 kts 122°
2026-05-05 20:25 45.58320 8.93491 15650 ft 276 kts 93°
2026-05-05 20:25 45.58732 8.96164 15271 ft 280 kts 62°
2026-05-05 20:25 45.59976 8.98257 14902 ft 278 kts 32°
2026-05-05 20:26 45.61682 8.99497 14542 ft 275 kts 21°
2026-05-05 20:26 45.63437 9.00601 14184 ft 275 kts 21°
2026-05-05 20:26 45.65198 9.01689 13823 ft 275 kts 19°
2026-05-05 20:26 45.67040 9.02148 13428 ft 267 kts 350°
2026-05-05 20:27 45.68759 9.01351 13029 ft 257 kts 322°
2026-05-05 20:27 45.69980 8.99588 12634 ft 247 kts 296°
2026-05-05 20:27 45.70512 8.97317 12251 ft 239 kts 271°
2026-05-05 20:27 45.70316 8.95008 12003 ft 230 kts 247°
2026-05-05 20:28 45.69517 8.93091 11998 ft 224 kts 226°
2026-05-05 20:28 45.68264 8.91777 12000 ft 225 kts 208°
2026-05-05 20:28 45.66849 8.90807 12000 ft 226 kts 205°
2026-05-05 20:28 45.65411 8.89905 12001 ft 226 kts 204°
2026-05-05 20:29 45.63967 8.89018 12002 ft 226 kts 204°
2026-05-05 20:29 45.62521 8.88129 12000 ft 226 kts 205°
2026-05-05 20:29 45.61043 8.87373 11998 ft 227 kts 189°
2026-05-05 20:29 45.59470 8.87617 11999 ft 233 kts 159°
2026-05-05 20:30 45.58189 8.89040 11996 ft 241 kts 127°
2026-05-05 20:30 45.57636 8.91300 12000 ft 248 kts 92°
2026-05-05 20:30 45.58066 8.93679 11998 ft 253 kts 56°
2026-05-05 20:30 45.59364 8.95324 12000 ft 252 kts 20°
2026-05-05 20:31 45.61027 8.96117 11997 ft 253 kts 18°
2026-05-05 20:31 45.62665 8.97077 11998 ft 255 kts 23°
2026-05-05 20:31 45.64269 8.98151 11997 ft 255 kts 24°
2026-05-05 20:31 45.65907 8.99109 11994 ft 252 kts
2026-05-05 20:32 45.67594 8.98867 11996 ft 243 kts 330°
2026-05-05 20:32 45.68823 8.97330 11998 ft 234 kts 295°
2026-05-05 20:32 45.69249 8.95159 12001 ft 227 kts 265°
2026-05-05 20:32 45.68841 8.93029 12000 ft 223 kts 236°
2026-05-05 20:33 45.67742 8.91492 11999 ft 224 kts 208°
2026-05-05 20:33 45.66324 8.90550 12000 ft 225 kts 205°
2026-05-05 20:33 45.64885 8.89644 11999 ft 226 kts 205°
2026-05-05 20:33 45.63446 8.88744 11866 ft 226 kts 205°
2026-05-05 20:34 45.62007 8.87845 11477 ft 224 kts 204°
2026-05-05 20:34 45.60500 8.87341 11105 ft 225 kts 179°
2026-05-05 20:34 45.59010 8.87985 10733 ft 229 kts 148°
2026-05-05 20:34 45.57960 8.89689 10366 ft 234 kts 116°
2026-05-05 20:35 45.57710 8.91969 10037 ft 237 kts 81°
2026-05-05 20:35 45.58379 8.94111 9996 ft 242 kts 49°
2026-05-05 20:35 45.59758 8.95449 9998 ft 243 kts 18°
2026-05-05 20:35 45.61364 8.96236 9994 ft 245 kts 21°
2026-05-05 20:36 45.62931 8.97203 9995 ft 246 kts 24°
2026-05-05 20:36 45.64479 8.98237 9999 ft 246 kts 25°
2026-05-05 20:36 45.66076 8.99061 9995 ft 243 kts
2026-05-05 20:36 45.67696 8.98652 9998 ft 237 kts 327°
2026-05-05 20:37 45.68837 8.97050 9998 ft 230 kts 293°
2026-05-05 20:37 45.69163 8.95638 10001 ft 225 kts 272°
2026-05-05 20:37 45.68712 8.92815 10000 ft 220 kts 233°
2026-05-05 20:37 45.67585 8.91375 10001 ft 219 kts 206°
2026-05-05 20:38 45.66194 8.90464 10002 ft 221 kts 204°
2026-05-05 20:38 45.64788 8.89580 10004 ft 221 kts 204°
2026-05-05 20:38 45.63380 8.88700 9930 ft 220 kts 204°
2026-05-05 20:38 45.61980 8.87828 9602 ft 219 kts 203°
2026-05-05 20:39 45.60507 8.87370 9262 ft 219 kts 177°
2026-05-05 20:39 45.59094 8.88037 8907 ft 221 kts 146°
2026-05-05 20:39 45.58115 8.89727 8550 ft 225 kts 114°
2026-05-05 20:39 45.57932 8.91937 8195 ft 230 kts 80°
2026-05-05 20:40 45.58639 8.93945 8001 ft 230 kts 45°
2026-05-05 20:40 45.59997 8.95164 8002 ft 235 kts 23°
2026-05-05 20:40 45.61496 8.96108 7999 ft 236 kts 23°
2026-05-05 20:40 45.63001 8.97056 7997 ft 237 kts 24°
2026-05-05 20:41 45.64508 8.98004 7997 ft 236 kts 23°
2026-05-05 20:41 45.66064 8.98699 7998 ft 234 kts
2026-05-05 20:41 45.67616 8.98175 7993 ft 230 kts 325°
2026-05-05 20:41 45.68676 8.96548 8002 ft 224 kts 291°
2026-05-05 20:42 45.68941 8.94406 8000 ft 219 kts 259°
2026-05-05 20:42 45.68390 8.92425 7995 ft 216 kts 229°
2026-05-05 20:42 45.67220 8.91135 8000 ft 215 kts 204°
2026-05-05 20:42 45.65849 8.90256 8005 ft 216 kts 204°
2026-05-05 20:43 45.64474 8.89390 7999 ft 216 kts 204°
2026-05-05 20:43 45.63096 8.88528 8000 ft 216 kts 204°
2026-05-05 20:43 45.61718 8.87676 7999 ft 216 kts 200°
2026-05-05 20:43 45.60245 8.87415 7997 ft 217 kts 171°
2026-05-05 20:44 45.58887 8.88327 7997 ft 220 kts 139°
2026-05-05 20:44 45.58082 8.90185 7999 ft 226 kts 105°
2026-05-05 20:44 45.58144 8.92424 7997 ft 231 kts 70°
2026-05-05 20:44 45.59089 8.94259 8003 ft 234 kts 34°
2026-05-05 20:45 45.62088 8.96143 7999 ft 237 kts 23°
2026-05-05 20:45 45.63593 8.97102 7999 ft 237 kts 24°
2026-05-05 20:45 45.65094 8.98063 7996 ft 236 kts 21°
2026-05-05 20:46 45.66690 8.98349 7997 ft 233 kts 345°
2026-05-05 20:46 45.68082 8.97291 8002 ft 227 kts 309°
2026-05-05 20:46 45.68789 8.95342 8000 ft 222 kts 276°
2026-05-05 20:46 45.68633 8.93204 7996 ft 217 kts 244°
2026-05-05 20:47 45.67729 8.91536 7838 ft 213 kts 213°
2026-05-05 20:47 45.66407 8.90603 7480 ft 213 kts 203°
2026-05-05 20:47 45.65048 8.89759 7144 ft 213 kts 203°
2026-05-05 20:47 45.63692 8.88909 6836 ft 212 kts 203°
2026-05-05 20:48 45.62340 8.88061 6529 ft 212 kts 203°
2026-05-05 20:48 45.60951 8.87417 6214 ft 210 kts 184°
2026-05-05 20:48 45.59545 8.87802 6017 ft 208 kts 152°
2026-05-05 20:48 45.58489 8.89223 6012 ft 215 kts 120°
2026-05-05 20:49 45.58147 8.91293 6014 ft 220 kts 86°
2026-05-05 20:49 45.58696 8.93317 6007 ft 224 kts 50°
2026-05-05 20:49 45.59964 8.94583 6012 ft 226 kts 22°
2026-05-05 20:49 45.61417 8.95461 6004 ft 227 kts 23°
2026-05-05 20:50 45.62379 8.96057 6004 ft 227 kts 22°
2026-05-05 20:50 45.63913 8.96355 6007 ft 225 kts 344°
2026-05-05 20:50 45.65306 8.95397 6006 ft 223 kts 318°
2026-05-05 20:50 45.66248 8.93674 6009 ft 220 kts 289°
2026-05-05 20:51 45.66494 8.91560 6006 ft 216 kts 261°
2026-05-05 20:51 45.66030 8.89558 6011 ft 213 kts 234°
2026-05-05 20:51 45.64984 8.88093 6008 ft 211 kts 208°
2026-05-05 20:51 45.63598 8.87473 6006 ft 211 kts 182°
2026-05-05 20:52 45.62142 8.87710 6007 ft 212 kts 170°
2026-05-05 20:52 45.60690 8.88094 6007 ft 212 kts 170°
2026-05-05 20:52 45.59235 8.88475 6007 ft 212 kts 170°
2026-05-05 20:52 45.57785 8.88852 6004 ft 212 kts 170°
2026-05-05 20:53 45.56332 8.89232 6005 ft 212 kts 170°
2026-05-05 20:53 45.54880 8.89611 6006 ft 212 kts 171°
2026-05-05 20:53 45.53430 8.89988 6007 ft 212 kts 171°
2026-05-05 20:53 45.51980 8.90365 6006 ft 212 kts 171°
2026-05-05 20:54 45.50534 8.90742 6007 ft 212 kts 171°
2026-05-05 20:54 45.49086 8.91124 6005 ft 211 kts 170°
2026-05-05 20:54 45.47639 8.91516 6005 ft 211 kts 170°
2026-05-05 20:54 45.46195 8.91911 6003 ft 211 kts 170°
2026-05-05 20:55 45.44748 8.92305 6005 ft 211 kts 170°
2026-05-05 20:55 45.43308 8.92700 6001 ft 211 kts 170°
2026-05-05 20:55 45.41867 8.93094 5999 ft 211 kts 170°
2026-05-05 20:55 45.40424 8.93487 5998 ft 211 kts 170°
2026-05-05 20:56 45.38978 8.93879 6003 ft 211 kts 171°
2026-05-05 20:56 45.37538 8.94268 6001 ft 211 kts 171°
2026-05-05 20:56 45.36098 8.94658 5998 ft 211 kts 170°
2026-05-05 20:56 45.34659 8.95048 6001 ft 211 kts 170°
2026-05-05 20:57 45.33222 8.95439 6000 ft 210 kts 170°
2026-05-05 20:57 45.31783 8.95828 5999 ft 210 kts 171°
2026-05-05 20:57 45.30346 8.96215 5998 ft 210 kts 171°
2026-05-05 20:57 45.28909 8.96605 6002 ft 210 kts 171°
2026-05-05 20:58 45.27475 8.96995 5982 ft 210 kts 171°
2026-05-05 20:58 45.26038 8.97382 5983 ft 210 kts 171°
2026-05-05 20:58 45.24597 8.97700 5979 ft 209 kts 182°
2026-05-05 20:58 45.23247 8.97088 5979 ft 207 kts 217°
2026-05-05 20:59 45.22413 8.95444 5985 ft 211 kts 252°
2026-05-05 20:59 45.22372 8.93371 5981 ft 217 kts 285°
2026-05-05 20:59 45.23194 8.91573 5986 ft 223 kts 316°
2026-05-05 20:59 45.24426 8.90214 5987 ft 225 kts 323°
2026-05-05 21:00 45.25713 8.88947 5985 ft 226 kts 323°
2026-05-05 21:00 45.27011 8.87688 6003 ft 226 kts 323°
2026-05-05 21:00 45.28311 8.86433 5988 ft 225 kts 323°
2026-05-05 21:00 45.29601 8.85188 5681 ft 224 kts 323°
2026-05-05 21:01 45.30888 8.83945 5371 ft 223 kts 324°
2026-05-05 21:01 45.32165 8.82707 5067 ft 222 kts 324°
2026-05-05 21:01 45.33481 8.81575 4761 ft 222 kts 339°
2026-05-05 21:01 45.34973 8.81029 4441 ft 221 kts 348°
2026-05-05 21:02 45.36481 8.80632 4156 ft 220 kts 349°
2026-05-05 21:02 45.37971 8.80234 4007 ft 218 kts 349°
2026-05-05 21:02 45.39460 8.79828 4008 ft 218 kts 349°
2026-05-05 21:02 45.40953 8.79419 4007 ft 219 kts 349°
2026-05-05 21:03 45.42445 8.79010 4009 ft 219 kts 349°
2026-05-05 21:03 45.43940 8.78601 4008 ft 219 kts 349°
2026-05-05 21:03 45.45436 8.78190 3908 ft 219 kts 349°
2026-05-05 21:03 45.46926 8.77781 3659 ft 218 kts 349°
2026-05-05 21:04 45.48411 8.77374 3389 ft 216 kts 349°
2026-05-05 21:04 45.49884 8.76969 3101 ft 215 kts 350°
2026-05-05 21:04 45.51355 8.76565 2812 ft 215 kts 350°
2026-05-05 21:04 45.52803 8.76166 2529 ft 208 kts 350°
2026-05-05 21:05 45.54188 8.75785 2284 ft 194 kts 350°
2026-05-05 21:05 45.55479 8.75429 1998 ft 185 kts 350°
2026-05-05 21:05 45.56723 8.75087 1754 ft 180 kts 351°
2026-05-05 21:05 45.57931 8.74754 1490 ft 169 kts 350°
2026-05-05 21:06 45.59014 8.74456 1266 ft 150 kts 349°
2026-05-05 21:06 45.59988 8.74187 1064 ft 137 kts 348°
2026-05-05 21:06 45.60905 8.73935 885 ft 132 kts 349°
2026-05-05 21:06 45.61799 8.73690 756 ft 129 kts 349°
2026-05-05 21:07 45.62502 8.73487 740 ft 75 kts 348°
2026-05-05 21:07 45.62966 8.73352 740 ft 46 kts 348°
2026-05-05 21:07 45.63201 8.73187 741 ft 35 kts 313°
2026-05-05 21:07 45.63333 8.72913 741 ft 27 kts 302°
2026-05-05 21:08 45.63406 8.72721 741 ft 23 kts 276°
2026-05-05 21:08 45.63392 8.72486 741 ft 25 kts 256°
2026-05-05 21:08 45.63357 8.72230 741 ft 27 kts 261°
2026-05-05 21:08 45.63332 8.72040 741 ft 14 kts 256°
2026-05-05 21:09 45.63299 8.71974 741 ft 0 kts 208°
2026-05-05 21:10 45.63291 8.71971 741 ft 8 kts 191°
2026-05-05 21:10 45.63174 8.72001 741 ft 22 kts 169°
2026-05-05 21:10 45.62993 8.72047 740 ft 29 kts 169°
2026-05-05 21:11 45.62798 8.72103 741 ft 28 kts 167°
2026-05-05 21:11 45.62597 8.72161 741 ft 31 kts 169°
2026-05-05 21:11 45.62500 8.72187 741 ft 0 kts 170°
2026-05-05 21:12 45.62497 8.72188 741 ft 3 kts 170°
2026-05-05 21:12 45.62416 8.72206 741 ft 20 kts 175°
2026-05-05 21:13 45.62359 8.72055 741 ft 23 kts 256°
2026-05-05 21:13 45.62324 8.71816 741 ft 23 kts 258°
2026-05-05 21:13 45.62299 8.71641 741 ft 12 kts 261°
2026-05-05 21:13 45.62334 8.71569 741 ft 8 kts 355°
2026-05-05 21:14 45.62376 8.71578 741 ft 0 kts 11°